AAL389 KDFW-MMMX

Flight info

Callsign AAL389
Flight time 2h 24m
Altitude 37000
Route NELYN6 HOARY DCT BRO/N0450F360 DCT MAM UJ59 MAPIL/N0447F370 UJ59 TAM/N0447F380 UT100 ENAGA ENAGA3B
Aircraft B738/M-SDE2E3FGHIRWXY/LB1

Departure

Time 2026-04-30 08:06
Airport Dallas Fort Worth International Airport (KDFW)

Arrival

Time 2026-04-30 10:31
Airport Mexico City Benito Juárez International Airport (MMMX)
Time Latitude Longitude Altitude Speed Heading
2026-04-30 07:32 32.90398 -97.04564 618 ft 0 kts 64°
2026-04-30 07:53 32.90394 -97.04571 626 ft 4 kts 65°
2026-04-30 07:53 32.90385 -97.04596 622 ft 4 kts 69°
2026-04-30 07:53 32.90383 -97.04622 626 ft 4 kts 127°
2026-04-30 07:54 32.90403 -97.04637 624 ft 4 kts 172°
2026-04-30 07:54 32.90415 -97.04638 622 ft 0 kts 180°
2026-04-30 07:56 32.90412 -97.04638 622 ft 1 kts 180°
2026-04-30 07:56 32.90397 -97.04640 627 ft 3 kts 194°
2026-04-30 07:56 32.90381 -97.04654 618 ft 3 kts 227°
2026-04-30 07:57 32.90374 -97.04680 621 ft 4 kts 264°
2026-04-30 07:57 32.90374 -97.04717 615 ft 5 kts 268°
2026-04-30 07:57 32.90351 -97.04758 616 ft 7 kts 206°
2026-04-30 07:57 32.90295 -97.04764 619 ft 9 kts 180°
2026-04-30 07:58 32.90228 -97.04764 623 ft 10 kts 180°
2026-04-30 07:58 32.90150 -97.04764 618 ft 12 kts 180°
2026-04-30 07:58 32.90064 -97.04765 622 ft 13 kts 180°
2026-04-30 07:58 32.89969 -97.04765 619 ft 14 kts 180°
2026-04-30 07:59 32.89866 -97.04766 617 ft 15 kts 180°
2026-04-30 07:59 32.89755 -97.04766 618 ft 16 kts 180°
2026-04-30 07:59 32.89636 -97.04766 620 ft 18 kts 180°
2026-04-30 08:00 32.89380 -97.04768 618 ft 20 kts 180°
2026-04-30 08:00 32.89249 -97.04768 620 ft 15 kts 180°
2026-04-30 08:00 32.89136 -97.04769 619 ft 18 kts 180°
2026-04-30 08:00 32.89004 -97.04771 615 ft 19 kts 180°
2026-04-30 08:01 32.88875 -97.04771 625 ft 19 kts 180°
2026-04-30 08:01 32.88747 -97.04772 619 ft 18 kts 180°
2026-04-30 08:01 32.88625 -97.04772 622 ft 17 kts 180°
2026-04-30 08:01 32.88517 -97.04776 621 ft 14 kts 199°
2026-04-30 08:02 32.88444 -97.04895 620 ft 10 kts 182°
2026-04-30 08:02 32.88378 -97.04895 623 ft 10 kts 180°
2026-04-30 08:03 32.88203 -97.04896 621 ft 16 kts 180°
2026-04-30 08:03 32.87979 -97.04906 620 ft 10 kts 198°
2026-04-30 08:03 32.87919 -97.04947 617 ft 10 kts 231°
2026-04-30 08:04 32.87907 -97.05035 618 ft 12 kts 270°
2026-04-30 08:04 32.87908 -97.05144 615 ft 14 kts 270°
2026-04-30 08:04 32.87908 -97.05273 625 ft 16 kts 270°
2026-04-30 08:04 32.87908 -97.05394 615 ft 10 kts 269°
2026-04-30 08:05 32.87908 -97.05444 615 ft 4 kts 269°
2026-04-30 08:05 32.87909 -97.05475 622 ft 4 kts 289°
2026-04-30 08:05 32.87935 -97.05482 615 ft 4 kts 358°
2026-04-30 08:05 32.88015 -97.05482 619 ft 35 kts
2026-04-30 08:06 32.88517 -97.05479 618 ft 108 kts
2026-04-30 08:06 32.89478 -97.05475 637 ft 165 kts
2026-04-30 08:06 32.90652 -97.05478 1306 ft 172 kts
2026-04-30 08:06 32.91872 -97.05500 2079 ft 181 kts
2026-04-30 08:07 32.93237 -97.05519 2387 ft 210 kts
2026-04-30 08:07 32.94772 -97.05740 2696 ft 235 kts 349°
2026-04-30 08:07 32.96364 -97.06351 3247 ft 245 kts 348°
2026-04-30 08:07 32.98026 -97.06970 3848 ft 255 kts 347°
2026-04-30 08:08 32.99656 -97.07857 4679 ft 263 kts 323°
2026-04-30 08:08 33.00744 -97.09583 5659 ft 263 kts 291°
2026-04-30 08:08 33.01052 -97.11671 6700 ft 259 kts 271°
2026-04-30 08:08 33.00950 -97.13832 7582 ft 259 kts 267°
2026-04-30 08:09 33.00799 -97.15975 8425 ft 260 kts 267°
2026-04-30 08:09 33.00609 -97.18136 9144 ft 267 kts 265°
2026-04-30 08:09 33.00375 -97.20352 9883 ft 272 kts 265°
2026-04-30 08:09 33.00114 -97.22576 10481 ft 283 kts 259°
2026-04-30 08:10 32.99249 -97.24803 10646 ft 314 kts 237°
2026-04-30 08:10 32.97688 -97.26770 10939 ft 336 kts 227°
2026-04-30 08:10 32.95793 -97.28465 11510 ft 351 kts 210°
2026-04-30 08:10 32.93423 -97.29284 12315 ft 361 kts 191°
2026-04-30 08:11 32.90895 -97.29280 13107 ft 366 kts 183°
2026-04-30 08:11 32.88337 -97.29101 13794 ft 370 kts 182°
2026-04-30 08:11 32.85760 -97.28906 14371 ft 373 kts 183°
2026-04-30 08:11 32.83152 -97.28736 14971 ft 376 kts 184°
2026-04-30 08:12 32.80523 -97.28588 15578 ft 379 kts 184°
2026-04-30 08:12 32.77876 -97.28439 16169 ft 384 kts 182°
2026-04-30 08:12 32.75195 -97.28072 16749 ft 391 kts 178°
2026-04-30 08:12 32.72495 -97.27535 17320 ft 396 kts 176°
2026-04-30 08:13 32.69770 -97.26967 17890 ft 400 kts 177°
2026-04-30 08:13 32.67014 -97.26407 18406 ft 404 kts 177°
2026-04-30 08:13 32.64232 -97.25845 18892 ft 407 kts 177°
2026-04-30 08:13 32.61444 -97.25280 19425 ft 408 kts 178°
2026-04-30 08:14 32.58635 -97.24710 19945 ft 410 kts 178°
2026-04-30 08:14 32.55811 -97.24137 20438 ft 413 kts 178°
2026-04-30 08:14 32.52973 -97.23561 20936 ft 415 kts 178°
2026-04-30 08:14 32.50113 -97.22979 21427 ft 418 kts 178°
2026-04-30 08:15 32.47241 -97.22395 21909 ft 420 kts 178°
2026-04-30 08:15 32.44359 -97.21810 22393 ft 421 kts 179°
2026-04-30 08:15 32.41460 -97.21221 22859 ft 424 kts 179°
2026-04-30 08:15 32.38552 -97.20631 23294 ft 425 kts 179°
2026-04-30 08:16 32.35626 -97.20037 23722 ft 427 kts 179°
2026-04-30 08:16 32.32696 -97.19443 24068 ft 429 kts 179°
2026-04-30 08:16 32.29746 -97.18849 24388 ft 431 kts 180°
2026-04-30 08:16 32.26793 -97.18653 24661 ft 419 kts 194°
2026-04-30 08:17 32.23906 -97.19039 24960 ft 419 kts 196°
2026-04-30 08:17 32.20997 -97.19480 25262 ft 422 kts 196°
2026-04-30 08:17 32.18081 -97.19924 25561 ft 425 kts 196°
2026-04-30 08:17 32.15131 -97.20358 25855 ft 428 kts 196°
2026-04-30 08:18 32.12162 -97.20779 26143 ft 431 kts 196°
2026-04-30 08:18 32.09168 -97.21190 26423 ft 435 kts 196°
2026-04-30 08:18 32.06155 -97.21597 26699 ft 438 kts 196°
2026-04-30 08:18 32.03122 -97.22002 26992 ft 440 kts 196°
2026-04-30 08:19 32.01100 -97.22271 27182 ft 442 kts 196°
2026-04-30 08:19 31.97074 -97.22805 27556 ft 445 kts 196°
2026-04-30 08:19 31.95033 -97.23077 27734 ft 447 kts 196°
2026-04-30 08:19 31.91940 -97.23488 28002 ft 449 kts 196°
2026-04-30 08:20 31.88830 -97.23902 28273 ft 451 kts 196°
2026-04-30 08:20 31.85701 -97.24318 28527 ft 454 kts 196°
2026-04-30 08:20 31.82558 -97.24736 28778 ft 456 kts 196°
2026-04-30 08:20 31.79397 -97.25156 29024 ft 458 kts 196°
2026-04-30 08:21 31.76228 -97.25576 29265 ft 460 kts 196°
2026-04-30 08:21 31.73046 -97.25998 29538 ft 461 kts 197°
2026-04-30 08:21 31.69861 -97.26419 29899 ft 460 kts 197°
2026-04-30 08:21 31.66690 -97.26862 30250 ft 455 kts 200°
2026-04-30 08:22 31.63734 -97.27890 30527 ft 435 kts 212°
2026-04-30 08:22 31.60952 -97.29251 30881 ft 433 kts 213°
2026-04-30 08:22 31.58179 -97.30616 31190 ft 432 kts 213°
2026-04-30 08:22 31.55437 -97.31952 31498 ft 432 kts 212°
2026-04-30 08:23 31.52658 -97.33286 31815 ft 432 kts 212°
2026-04-30 08:23 31.49878 -97.34606 32137 ft 431 kts 212°
2026-04-30 08:23 31.47093 -97.35919 32438 ft 430 kts 212°
2026-04-30 08:23 31.44315 -97.37225 32725 ft 430 kts 212°
2026-04-30 08:24 31.41544 -97.38526 33011 ft 429 kts 212°
2026-04-30 08:24 31.38772 -97.39827 33309 ft 429 kts 212°
2026-04-30 08:24 31.36005 -97.41125 33590 ft 428 kts 212°
2026-04-30 08:24 31.33238 -97.42424 33861 ft 428 kts 212°
2026-04-30 08:25 31.30478 -97.43718 34112 ft 428 kts 212°
2026-04-30 08:25 31.27718 -97.45010 34372 ft 426 kts 212°
2026-04-30 08:25 31.24968 -97.46297 34653 ft 425 kts 212°
2026-04-30 08:25 31.22229 -97.47575 34916 ft 423 kts 212°
2026-04-30 08:26 31.19493 -97.48851 35158 ft 422 kts 213°
2026-04-30 08:26 31.16768 -97.50121 35402 ft 421 kts 213°
2026-04-30 08:26 31.14047 -97.51389 35653 ft 420 kts 213°
2026-04-30 08:26 31.11368 -97.52638 35891 ft 419 kts 213°
2026-04-30 08:27 31.08625 -97.53917 35972 ft 421 kts 213°
2026-04-30 08:27 31.03165 -97.56461 35983 ft 421 kts 213°
2026-04-30 08:28 30.97843 -97.58931 35991 ft 418 kts 213°
2026-04-30 08:28 30.92459 -97.61429 35987 ft 415 kts 213°
2026-04-30 08:29 30.87101 -97.63914 35991 ft 414 kts 213°
2026-04-30 08:29 30.81756 -97.66391 35993 ft 414 kts 213°
2026-04-30 08:30 30.76400 -97.68871 35992 ft 415 kts 212°
2026-04-30 08:30 30.71010 -97.71365 36040 ft 421 kts 212°
2026-04-30 08:30 30.68294 -97.72620 36141 ft 423 kts 212°
2026-04-30 08:31 30.65560 -97.73879 36356 ft 422 kts 212°
2026-04-30 08:31 30.62832 -97.75133 36630 ft 420 kts 212°
2026-04-30 08:31 30.60123 -97.76379 36889 ft 418 kts 212°
2026-04-30 08:31 30.57281 -97.77323 36961 ft 439 kts 198°
2026-04-30 08:32 30.54147 -97.77368 37018 ft 458 kts 187°
2026-04-30 08:32 30.47752 -97.76771 36964 ft 461 kts 186°
2026-04-30 08:33 30.41369 -97.76103 36966 ft 459 kts 186°
2026-04-30 08:33 30.35065 -97.75539 36960 ft 457 kts 187°
2026-04-30 08:34 30.28728 -97.74991 36980 ft 456 kts 186°
2026-04-30 08:34 30.22410 -97.74437 36979 ft 456 kts 186°
2026-04-30 08:35 30.16089 -97.73876 36980 ft 456 kts 186°
2026-04-30 08:35 30.09752 -97.73311 36984 ft 457 kts 186°
2026-04-30 08:36 30.03396 -97.72744 36973 ft 459 kts 186°
2026-04-30 08:36 29.97098 -97.72183 36946 ft 460 kts 186°
2026-04-30 08:37 29.90701 -97.71614 36939 ft 462 kts 186°
2026-04-30 08:37 29.84287 -97.71044 36944 ft 463 kts 186°
2026-04-30 08:38 29.77864 -97.70473 36934 ft 464 kts 186°
2026-04-30 08:38 29.71425 -97.69901 36929 ft 464 kts 186°
2026-04-30 08:39 29.64987 -97.69330 36900 ft 463 kts 185°
2026-04-30 08:39 29.58602 -97.68765 36896 ft 463 kts 185°
2026-04-30 08:40 29.52190 -97.68198 36894 ft 462 kts 185°
2026-04-30 08:40 29.45797 -97.67634 36888 ft 460 kts 185°
2026-04-30 08:41 29.39422 -97.67072 36890 ft 459 kts 185°
2026-04-30 08:41 29.33058 -97.66512 36890 ft 458 kts 185°
2026-04-30 08:42 29.26707 -97.65955 36887 ft 458 kts 185°
2026-04-30 08:42 29.20350 -97.65398 36884 ft 457 kts 185°
2026-04-30 08:43 29.14000 -97.64842 36887 ft 458 kts 185°
2026-04-30 08:43 29.07639 -97.64286 36882 ft 459 kts 184°
2026-04-30 08:44 29.01259 -97.63729 36885 ft 460 kts 184°
2026-04-30 08:44 28.94964 -97.63179 36884 ft 461 kts 184°
2026-04-30 08:45 28.88558 -97.62621 36883 ft 462 kts 184°
2026-04-30 08:45 28.82179 -97.62065 36884 ft 463 kts 184°
2026-04-30 08:46 28.75739 -97.61505 36879 ft 464 kts 184°
2026-04-30 08:46 28.69289 -97.60944 36872 ft 465 kts 184°
2026-04-30 08:47 28.62837 -97.60383 36884 ft 465 kts 184°
2026-04-30 08:47 28.56372 -97.59823 36885 ft 466 kts 184°
2026-04-30 08:48 28.49916 -97.59263 36888 ft 465 kts 184°
2026-04-30 08:48 28.43457 -97.58705 36893 ft 465 kts 184°
2026-04-30 08:49 28.37005 -97.58147 36895 ft 464 kts 183°
2026-04-30 08:49 28.30562 -97.57591 36892 ft 464 kts 183°
2026-04-30 08:50 28.24120 -97.57036 36885 ft 464 kts 183°
2026-04-30 08:50 28.17683 -97.56483 36883 ft 463 kts 183°
2026-04-30 08:51 28.11263 -97.55931 36877 ft 463 kts 183°
2026-04-30 08:51 28.04884 -97.55384 36870 ft 463 kts 183°
2026-04-30 08:52 27.98532 -97.54839 36880 ft 463 kts 183°
2026-04-30 08:52 27.92113 -97.54290 36882 ft 463 kts 182°
2026-04-30 08:53 27.85690 -97.53740 36869 ft 463 kts 182°
2026-04-30 08:53 27.79260 -97.53191 36875 ft 463 kts 182°
2026-04-30 08:54 27.72834 -97.52642 36879 ft 463 kts 182°
2026-04-30 08:54 27.66410 -97.52095 36877 ft 463 kts 182°
2026-04-30 08:55 27.59982 -97.51548 36873 ft 463 kts 182°
2026-04-30 08:55 27.53548 -97.51001 36866 ft 464 kts 182°
2026-04-30 08:56 27.47110 -97.50454 36863 ft 464 kts 182°
2026-04-30 08:56 27.40668 -97.49907 36852 ft 464 kts 182°
2026-04-30 08:57 27.34223 -97.49361 36850 ft 464 kts 181°
2026-04-30 08:57 27.27811 -97.48819 36850 ft 465 kts 181°
2026-04-30 08:58 27.21364 -97.48274 36850 ft 465 kts 181°
2026-04-30 08:58 27.14912 -97.47729 36852 ft 465 kts 181°
2026-04-30 08:59 27.08451 -97.47184 36851 ft 466 kts 181°
2026-04-30 08:59 27.01985 -97.46639 36855 ft 466 kts 181°
2026-04-30 09:00 26.95586 -97.46101 36847 ft 467 kts 181°
2026-04-30 09:00 26.89109 -97.45556 36850 ft 467 kts 181°
2026-04-30 09:01 26.82620 -97.45012 36848 ft 468 kts 181°
2026-04-30 09:01 26.76129 -97.44467 36853 ft 468 kts 181°
2026-04-30 09:02 26.66375 -97.43651 36843 ft 469 kts 181°
2026-04-30 09:02 26.59864 -97.43106 36849 ft 469 kts 182°
2026-04-30 09:03 26.53343 -97.42562 36850 ft 470 kts 182°
2026-04-30 09:03 26.46819 -97.42018 36841 ft 471 kts 182°
2026-04-30 09:04 26.40281 -97.41473 36845 ft 471 kts 182°
2026-04-30 09:04 26.33737 -97.40928 36843 ft 472 kts 182°
2026-04-30 09:05 26.27190 -97.40383 36841 ft 472 kts 182°
2026-04-30 09:05 26.20645 -97.39839 36842 ft 471 kts 182°
2026-04-30 09:06 26.14165 -97.39302 36840 ft 471 kts 182°
2026-04-30 09:06 26.07672 -97.38763 36839 ft 470 kts 182°
2026-04-30 09:07 26.01155 -97.38224 36779 ft 470 kts 182°
2026-04-30 09:07 25.97970 -97.37960 36587 ft 469 kts 182°
2026-04-30 09:07 25.94753 -97.38045 36294 ft 455 kts 197°
2026-04-30 09:08 25.91781 -97.38997 36068 ft 439 kts 210°
2026-04-30 09:08 25.89134 -97.40596 35890 ft 430 kts 222°
2026-04-30 09:08 25.85405 -97.44230 35848 ft 427 kts 227°
2026-04-30 09:09 25.80197 -97.49314 35833 ft 432 kts 223°
2026-04-30 09:09 25.75770 -97.52019 35842 ft 444 kts 206°
2026-04-30 09:10 25.72776 -97.52945 35827 ft 452 kts 194°
2026-04-30 09:10 25.69631 -97.53336 35846 ft 455 kts 190°
2026-04-30 09:10 25.63312 -97.53875 35825 ft 456 kts 189°
2026-04-30 09:11 25.56999 -97.54440 35815 ft 455 kts 190°
2026-04-30 09:11 25.50687 -97.55068 35821 ft 455 kts 191°
2026-04-30 09:12 25.44377 -97.55712 35821 ft 455 kts 190°
2026-04-30 09:12 25.38065 -97.56351 35820 ft 456 kts 190°
2026-04-30 09:13 25.31752 -97.57026 35821 ft 456 kts 191°
2026-04-30 09:13 25.25443 -97.57793 35825 ft 456 kts 191°
2026-04-30 09:14 25.19133 -97.58558 35823 ft 456 kts 191°
2026-04-30 09:14 25.12818 -97.59310 35822 ft 457 kts 191°
2026-04-30 09:15 25.06500 -97.60058 35820 ft 457 kts 191°
2026-04-30 09:15 25.00159 -97.60705 35823 ft 457 kts 189°
2026-04-30 09:16 24.93891 -97.61287 35825 ft 457 kts 189°
2026-04-30 09:16 24.87551 -97.61882 35825 ft 457 kts 189°
2026-04-30 09:17 24.81209 -97.62488 35826 ft 457 kts 189°
2026-04-30 09:17 24.74873 -97.63098 35825 ft 457 kts 189°
2026-04-30 09:18 24.68579 -97.63704 35828 ft 456 kts 189°
2026-04-30 09:18 24.62256 -97.64312 35825 ft 456 kts 189°
2026-04-30 09:19 24.55926 -97.64920 35824 ft 456 kts 189°
2026-04-30 09:19 24.49606 -97.65526 35823 ft 456 kts 189°
2026-04-30 09:20 24.43283 -97.66132 35825 ft 456 kts 189°
2026-04-30 09:20 24.36967 -97.66737 35825 ft 456 kts 189°
2026-04-30 09:21 24.30644 -97.67342 35827 ft 456 kts 189°
2026-04-30 09:21 24.24323 -97.67946 35826 ft 456 kts 189°
2026-04-30 09:22 24.18003 -97.68549 35825 ft 456 kts 189°
2026-04-30 09:22 24.11682 -97.69152 35827 ft 456 kts 189°
2026-04-30 09:23 24.05356 -97.69754 35827 ft 456 kts 189°
2026-04-30 09:23 23.99104 -97.70349 35827 ft 456 kts 189°
2026-04-30 09:24 23.92777 -97.70951 35827 ft 456 kts 189°
2026-04-30 09:24 23.86453 -97.71551 35825 ft 456 kts 188°
2026-04-30 09:25 23.80127 -97.72151 35826 ft 456 kts 188°
2026-04-30 09:25 23.73806 -97.72751 35826 ft 456 kts 188°
2026-04-30 09:26 23.67523 -97.73346 35825 ft 456 kts 188°
2026-04-30 09:26 23.61202 -97.73944 35826 ft 456 kts 188°
2026-04-30 09:27 23.54882 -97.74541 35824 ft 456 kts 188°
2026-04-30 09:27 23.48563 -97.75138 35823 ft 456 kts 188°
2026-04-30 09:28 23.42243 -97.75734 35829 ft 456 kts 188°
2026-04-30 09:28 23.35925 -97.76329 35828 ft 455 kts 188°
2026-04-30 09:29 23.29607 -97.76924 35826 ft 455 kts 188°
2026-04-30 09:29 23.23290 -97.77519 35825 ft 456 kts 188°
2026-04-30 09:30 23.16968 -97.78111 35828 ft 456 kts 188°
2026-04-30 09:30 23.10651 -97.78695 35827 ft 456 kts 188°
2026-04-30 09:31 23.04335 -97.79278 35835 ft 456 kts 188°
2026-04-30 09:31 22.98122 -97.79852 35822 ft 456 kts 188°
2026-04-30 09:32 22.91798 -97.80436 35827 ft 456 kts 188°
2026-04-30 09:32 22.85467 -97.81020 35824 ft 456 kts 188°
2026-04-30 09:33 22.79143 -97.81604 35827 ft 456 kts 188°
2026-04-30 09:33 22.72815 -97.82187 35829 ft 456 kts 188°
2026-04-30 09:34 22.66491 -97.82773 35824 ft 456 kts 188°
2026-04-30 09:34 22.60211 -97.83366 35826 ft 456 kts 188°
2026-04-30 09:35 22.53887 -97.83963 35822 ft 456 kts 188°
2026-04-30 09:35 22.47565 -97.84558 35828 ft 456 kts 188°
2026-04-30 09:36 22.41251 -97.85151 35817 ft 456 kts 188°
2026-04-30 09:36 22.34926 -97.85744 35818 ft 456 kts 188°
2026-04-30 09:37 22.28596 -97.86336 35817 ft 456 kts 187°
2026-04-30 09:37 22.22246 -97.86775 35814 ft 457 kts 186°
2026-04-30 09:38 22.15889 -97.87130 35812 ft 458 kts 186°
2026-04-30 09:38 22.09529 -97.87497 35812 ft 458 kts 186°
2026-04-30 09:39 22.03176 -97.87881 35814 ft 458 kts 186°
2026-04-30 09:39 21.96880 -97.88267 35812 ft 458 kts 186°
2026-04-30 09:40 21.90515 -97.88657 35810 ft 458 kts 186°
2026-04-30 09:40 21.84151 -97.89046 35810 ft 458 kts 186°
2026-04-30 09:41 21.77826 -97.89432 35810 ft 458 kts 186°
2026-04-30 09:41 21.71453 -97.89821 35810 ft 458 kts 186°
2026-04-30 09:42 21.65080 -97.90209 35809 ft 459 kts 186°
2026-04-30 09:42 21.58709 -97.90597 35808 ft 459 kts 185°
2026-04-30 09:43 21.52337 -97.90984 35814 ft 459 kts 185°
2026-04-30 09:43 21.45971 -97.91375 35813 ft 459 kts 186°
2026-04-30 09:44 21.39668 -97.92348 35816 ft 456 kts 193°
2026-04-30 09:44 21.33431 -97.93610 35812 ft 456 kts 193°
2026-04-30 09:45 21.27183 -97.94860 35816 ft 457 kts 192°
2026-04-30 09:45 21.20920 -97.96067 35811 ft 458 kts 192°
2026-04-30 09:46 21.14648 -97.97256 35816 ft 458 kts 192°
2026-04-30 09:46 21.08373 -97.98440 35818 ft 458 kts 192°
2026-04-30 09:47 21.02090 -97.99627 35822 ft 459 kts 192°
2026-04-30 09:47 20.95867 -98.00802 35822 ft 459 kts 192°
2026-04-30 09:48 20.89564 -98.01992 35825 ft 460 kts 192°
2026-04-30 09:48 20.83261 -98.03181 35829 ft 460 kts 192°
2026-04-30 09:49 20.77000 -98.04361 35828 ft 460 kts 192°
2026-04-30 09:49 20.70689 -98.05549 35839 ft 461 kts 192°
2026-04-30 09:50 20.64332 -98.06744 35851 ft 461 kts 192°
2026-04-30 09:50 20.58053 -98.07925 35845 ft 459 kts 192°
2026-04-30 09:51 20.51798 -98.09099 35860 ft 455 kts 192°
2026-04-30 09:51 20.45545 -98.10273 35542 ft 458 kts 192°
2026-04-30 09:52 20.42426 -98.10857 35206 ft 452 kts 191°
2026-04-30 09:52 20.39340 -98.11435 34816 ft 449 kts 192°
2026-04-30 09:52 20.36275 -98.12009 34440 ft 445 kts 192°
2026-04-30 09:52 20.33229 -98.12580 34055 ft 443 kts 192°
2026-04-30 09:53 20.30201 -98.13147 33609 ft 441 kts 192°
2026-04-30 09:53 20.27187 -98.13711 33187 ft 438 kts 192°
2026-04-30 09:53 20.24194 -98.14271 32784 ft 435 kts 192°
2026-04-30 09:53 20.21219 -98.14828 32369 ft 433 kts 192°
2026-04-30 09:54 20.18262 -98.15381 31994 ft 430 kts 192°
2026-04-30 09:54 20.15328 -98.15929 31600 ft 427 kts 192°
2026-04-30 09:54 20.12410 -98.16475 31221 ft 425 kts 192°
2026-04-30 09:54 20.10483 -98.16835 30972 ft 423 kts 192°
2026-04-30 09:55 20.07593 -98.17397 30596 ft 420 kts 196°
2026-04-30 09:55 20.04940 -98.18584 30209 ft 412 kts 216°
2026-04-30 09:55 20.02835 -98.20574 29904 ft 400 kts 234°
2026-04-30 09:55 20.01346 -98.23004 29746 ft 387 kts 248°
2026-04-30 09:56 20.00516 -98.25691 29602 ft 384 kts 259°
2026-04-30 09:56 19.99932 -98.28494 29455 ft 393 kts 261°
2026-04-30 09:56 19.99385 -98.31372 29288 ft 398 kts 261°
2026-04-30 09:56 19.98844 -98.34247 29121 ft 396 kts 261°
2026-04-30 09:57 19.98293 -98.37111 28960 ft 394 kts 260°
2026-04-30 09:57 19.97733 -98.39960 28803 ft 392 kts 260°
2026-04-30 09:57 19.97168 -98.42791 28653 ft 391 kts 260°
2026-04-30 09:57 19.96599 -98.45610 28500 ft 389 kts 260°
2026-04-30 09:58 19.96030 -98.48414 28351 ft 388 kts 260°
2026-04-30 09:58 19.95461 -98.51212 28204 ft 386 kts 259°
2026-04-30 09:58 19.94894 -98.53998 28058 ft 386 kts 259°
2026-04-30 09:58 19.94327 -98.56779 27900 ft 385 kts 259°
2026-04-30 09:59 19.93195 -98.62335 27607 ft 384 kts 259°
2026-04-30 09:59 19.92060 -98.67896 27308 ft 385 kts 259°
2026-04-30 10:00 19.90924 -98.73456 27059 ft 385 kts 259°
2026-04-30 10:00 19.90465 -98.76283 26642 ft 391 kts 264°
2026-04-30 10:01 19.89899 -98.82009 25812 ft 389 kts 265°
2026-04-30 10:01 19.89612 -98.84871 25359 ft 389 kts 264°
2026-04-30 10:01 19.89303 -98.87722 24926 ft 389 kts 264°
2026-04-30 10:02 19.89073 -98.93403 24052 ft 388 kts 274°
2026-04-30 10:02 19.89287 -98.96259 23558 ft 388 kts 276°
2026-04-30 10:02 19.89535 -98.99104 23068 ft 387 kts 276°
2026-04-30 10:02 19.89775 -99.01947 22596 ft 385 kts 276°
2026-04-30 10:03 19.89995 -99.04772 22134 ft 383 kts 275°
2026-04-30 10:03 19.90200 -99.07593 21680 ft 381 kts 275°
2026-04-30 10:03 19.90393 -99.10390 21212 ft 379 kts 275°
2026-04-30 10:03 19.90580 -99.13178 20749 ft 377 kts 275°
2026-04-30 10:04 19.90764 -99.15954 20299 ft 376 kts 275°
2026-04-30 10:04 19.90948 -99.18722 19827 ft 375 kts 275°
2026-04-30 10:04 19.91131 -99.21481 19353 ft 374 kts 276°
2026-04-30 10:04 19.91312 -99.24231 18899 ft 373 kts 276°
2026-04-30 10:05 19.91494 -99.26980 18423 ft 372 kts 276°
2026-04-30 10:05 19.91521 -99.29710 18095 ft 368 kts 264°
2026-04-30 10:05 19.90952 -99.32317 18024 ft 356 kts 257°
2026-04-30 10:05 19.90293 -99.34805 17975 ft 343 kts 256°
2026-04-30 10:06 19.89664 -99.37202 17958 ft 330 kts 257°
2026-04-30 10:06 19.89082 -99.39503 17958 ft 317 kts 257°
2026-04-30 10:06 19.88532 -99.41727 17982 ft 307 kts 258°
2026-04-30 10:06 19.87992 -99.43919 17938 ft 309 kts 257°
2026-04-30 10:07 19.87085 -99.46011 17746 ft 316 kts 233°
2026-04-30 10:07 19.85606 -99.47729 17720 ft 315 kts 227°
2026-04-30 10:07 19.84073 -99.49391 17723 ft 315 kts 227°
2026-04-30 10:07 19.82539 -99.51065 17709 ft 317 kts 227°
2026-04-30 10:08 19.80986 -99.52730 17710 ft 318 kts 221°
2026-04-30 10:08 19.79060 -99.53860 17711 ft 319 kts 196°
2026-04-30 10:08 19.76865 -99.54055 17713 ft 319 kts 171°
2026-04-30 10:08 19.74766 -99.53289 17361 ft 324 kts 145°
2026-04-30 10:09 19.73142 -99.51669 17079 ft 320 kts 123°
2026-04-30 10:09 19.71934 -99.49702 16805 ft 317 kts 120°
2026-04-30 10:09 19.70784 -99.47712 16491 ft 316 kts 119°
2026-04-30 10:09 19.69644 -99.45729 16193 ft 313 kts 120°
2026-04-30 10:10 19.68508 -99.43766 15907 ft 312 kts 120°
2026-04-30 10:10 19.67367 -99.41813 15620 ft 310 kts 120°
2026-04-30 10:10 19.66228 -99.39875 15334 ft 308 kts 120°
2026-04-30 10:10 19.65095 -99.37954 15055 ft 307 kts 120°
2026-04-30 10:11 19.63978 -99.36064 14792 ft 305 kts 120°
2026-04-30 10:11 19.63319 -99.34950 14640 ft 304 kts 120°
2026-04-30 10:11 19.62193 -99.33049 14377 ft 303 kts 120°
2026-04-30 10:11 19.61074 -99.31160 14124 ft 302 kts 120°
2026-04-30 10:12 19.59926 -99.29299 13850 ft 302 kts 127°
2026-04-30 10:12 19.58358 -99.27815 13526 ft 303 kts 143°
2026-04-30 10:12 19.56653 -99.26532 13223 ft 298 kts 143°
2026-04-30 10:12 19.55002 -99.25280 12883 ft 286 kts 143°
2026-04-30 10:13 19.53360 -99.24174 12559 ft 275 kts 159°
2026-04-30 10:13 19.51527 -99.23821 12289 ft 264 kts 182°
2026-04-30 10:13 19.49755 -99.24100 12015 ft 252 kts 192°
2026-04-30 10:13 19.48065 -99.24475 11748 ft 245 kts 192°
2026-04-30 10:14 19.46425 -99.24834 11484 ft 236 kts 191°
2026-04-30 10:14 19.44839 -99.25175 11240 ft 230 kts 191°
2026-04-30 10:14 19.41836 -99.24974 10786 ft 214 kts 152°
2026-04-30 10:15 19.40565 -99.24185 10532 ft 210 kts 149°
2026-04-30 10:15 19.39343 -99.23385 10316 ft 204 kts 149°
2026-04-30 10:15 19.38151 -99.22609 10103 ft 200 kts 149°
2026-04-30 10:15 19.37104 -99.21669 9833 ft 199 kts 122°
2026-04-30 10:16 19.36762 -99.20302 9654 ft 198 kts 86°
2026-04-30 10:16 19.37208 -99.18918 9495 ft 203 kts 60°
2026-04-30 10:16 19.37937 -99.17627 9327 ft 203 kts 59°
2026-04-30 10:17 19.39317 -99.15176 8919 ft 184 kts 59°
2026-04-30 10:17 19.40525 -99.13027 8481 ft 168 kts 59°
2026-04-30 10:17 19.40727 -99.12667 8392 ft 168 kts 59°
2026-04-30 10:18 19.40783 -99.12567 8371 ft 168 kts 59°
2026-04-30 10:18 19.41398 -99.11470 8170 ft 168 kts 59°
2026-04-30 10:18 19.41997 -99.10404 7880 ft 166 kts 59°
2026-04-30 10:19 19.43127 -99.08393 7466 ft 154 kts 59°
2026-04-30 10:19 19.43680 -99.07396 7304 ft 166 kts 59°
2026-04-30 10:19 19.44357 -99.06207 7550 ft 208 kts 58°
2026-04-30 10:19 19.45162 -99.04790 7947 ft 239 kts 59°
2026-04-30 10:20 19.46078 -99.03225 8168 ft 275 kts 58°
2026-04-30 10:20 19.48079 -98.99757 8952 ft 266 kts 59°
2026-04-30 10:20 19.49038 -98.98133 8957 ft 256 kts 49°
2026-04-30 10:21 19.50479 -98.97089 8953 ft 253 kts 19°
2026-04-30 10:21 19.52239 -98.96941 8937 ft 258 kts 349°
2026-04-30 10:21 19.53866 -98.97728 8930 ft 261 kts 320°
2026-04-30 10:21 19.54933 -98.99266 8930 ft 263 kts 290°
2026-04-30 10:22 19.55211 -99.01159 8943 ft 258 kts 268°
2026-04-30 10:22 19.55066 -99.03005 8943 ft 243 kts 262°
2026-04-30 10:22 19.54851 -99.04735 8951 ft 231 kts 262°
2026-04-30 10:22 19.54641 -99.06389 8970 ft 225 kts 262°
2026-04-30 10:23 19.54440 -99.08041 9230 ft 228 kts 262°
2026-04-30 10:23 19.54239 -99.09736 9692 ft 242 kts 262°
2026-04-30 10:23 19.54031 -99.11544 10194 ft 252 kts 262°
2026-04-30 10:23 19.53824 -99.13392 10631 ft 252 kts 262°
2026-04-30 10:24 19.53618 -99.15264 11089 ft 254 kts 263°
2026-04-30 10:24 19.53416 -99.17111 11542 ft 257 kts 263°
2026-04-30 10:24 19.53209 -99.18999 11999 ft 259 kts 264°
2026-04-30 10:24 19.52996 -99.20904 12418 ft 264 kts 261°
2026-04-30 10:25 19.52307 -99.22747 12426 ft 272 kts 231°
2026-04-30 10:25 19.50821 -99.23954 12171 ft 275 kts 199°
2026-04-30 10:25 19.48980 -99.24389 11939 ft 269 kts 189°
2026-04-30 10:25 19.47162 -99.24739 11614 ft 260 kts 190°
2026-04-30 10:26 19.45420 -99.25085 11331 ft 250 kts 190°
2026-04-30 10:26 19.43747 -99.25401 11100 ft 237 kts 183°
2026-04-30 10:26 19.42169 -99.25123 10827 ft 228 kts 156°
2026-04-30 10:26 19.40789 -99.24342 10602 ft 222 kts 148°
2026-04-30 10:27 19.39490 -99.23494 10387 ft 216 kts 148°
2026-04-30 10:27 19.38226 -99.22666 10143 ft 211 kts 148°
2026-04-30 10:27 19.37186 -99.21618 9876 ft 206 kts 118°
2026-04-30 10:27 19.36874 -99.20190 9666 ft 196 kts 86°
2026-04-30 10:28 19.37245 -99.18879 9533 ft 176 kts 61°
2026-04-30 10:28 19.37863 -99.17773 9388 ft 176 kts 60°
2026-04-30 10:28 19.38483 -99.16664 9206 ft 173 kts 59°
2026-04-30 10:28 19.39085 -99.15601 9072 ft 164 kts 58°
2026-04-30 10:29 19.39670 -99.14576 8819 ft 159 kts 58°
2026-04-30 10:29 19.40230 -99.13591 8534 ft 154 kts 58°
2026-04-30 10:29 19.40780 -99.12611 8200 ft 158 kts 59°
2026-04-30 10:29 19.41345 -99.11593 7984 ft 159 kts 59°
2026-04-30 10:30 19.41908 -99.10586 7780 ft 159 kts 59°
2026-04-30 10:30 19.42467 -99.09588 7566 ft 155 kts 59°
2026-04-30 10:30 19.43008 -99.08605 7358 ft 153 kts 59°
2026-04-30 10:30 19.43518 -99.07700 7303 ft 124 kts 59°
2026-04-30 10:31 19.43880 -99.07055 7303 ft 70 kts 59°
2026-04-30 10:31 19.43994 -99.06855 7303 ft 15 kts 47°
2026-04-30 10:31 19.44077 -99.06872 7302 ft 13 kts 319°
2026-04-30 10:31 19.44065 -99.06958 7302 ft 13 kts 239°
2026-04-30 10:32 19.44021 -99.07036 7302 ft 12 kts 239°
2026-04-30 10:32 19.43978 -99.07114 7302 ft 12 kts 239°
2026-04-30 10:32 19.43936 -99.07187 7302 ft 12 kts 239°
2026-04-30 10:32 19.43895 -99.07260 7302 ft 12 kts 239°
2026-04-30 10:33 19.43848 -99.07343 7302 ft 15 kts 239°
2026-04-30 10:33 19.43790 -99.07448 7302 ft 18 kts 240°
2026-04-30 10:33 19.43737 -99.07543 7302 ft 12 kts 239°
2026-04-30 10:33 19.43757 -99.07607 7302 ft 9 kts 321°
2026-04-30 10:34 19.43787 -99.07649 7302 ft 3 kts 297°
2026-04-30 10:34 19.43796 -99.07672 7302 ft 3 kts 284°
2026-04-30 10:34 19.43795 -99.07690 7302 ft 2 kts 261°
2026-04-30 10:34 19.43789 -99.07706 7302 ft 2 kts 246°
2026-04-30 10:35 19.43785 -99.07716 7302 ft 1 kts 245°
2026-04-30 10:35 19.43782 -99.07721 7302 ft 1 kts 244°